Regional Weather Roundup
Issued by NWS

Home | Current Version | Previous Version | Graphics & Text | Print | Product List | Glossary On
Versions: 1 2 3 4 5 6 7 8 9 10 11 12 13 14 15 16 17 18 19 20 21 22 23 24 25 26 27 28 29 30 31 32 33 34 35 36 37 38 39 40 41 42 43 44 45 46 47 48 49 50
000
ASUS43 KIND 171109
RWRIN

WEATHER ROUNDUP FOR INDIANA
NATIONAL WEATHER SERVICE INDIANAPOLIS IN
600 AM EST FRI NOV 17 2017

NOTE: "FAIR" INDICATES FEW OR NO CLOUDS BELOW 12,000 FEET WITH NO
SIGNIFICANT WEATHER AND/OR OBSTRUCTIONS TO VISIBILITY.

* - STATION DOES NOT REPORT WEATHER SUCH AS PRECIPITATION OR FOG.

+ - STATION NOT QUALITY CONTROLLED BY THE NATIONAL WEATHER SERVICE.
    USE DATA WITH CAUTION...ESPECIALLY DEWPOINT AND RELATIVE
    HUMIDITY OBSERVATIONS.

INZ001>003-010>013-019-020-171200-
NORTHWEST INDIANA

CITY           SKY/WX    TMP DP  RH WIND       PRES   REMARKS
GARY /AIRPORT/ PTCLDY    37  32  81 S8        30.17F WCI  31
KNOX *+        CLOUDY    36  32  87 S7        30.21S WCI  30
LA PORTE +     CLOUDY    35  31  86 S7        30.19F WCI  29
MICHIGAN CITY+ CLOUDY    34  30  86 S6        30.19F WCI  29
MONTICELLO +   CLOUDY    35  30  82 SE6       30.21R WCI  30
RENSSELAER +   CLOUDY    34  30  86 SE5       30.20S WCI  30
VALPARAISO     CLOUDY    37  32  82 SE7       30.18F WCI  32

$$

LMZ046-743>745-171200-
SOUTHERN LAKE MICHIGAN

STATION/POSITION TIME  TEMP    WIND        PRES    WAVE
                       AIR SEA DIR/SP/G            HT
                 (UTC) (F)     (DEG/KT/KT) (MB)    (FT)
BURNS HARBOR     1040   36     170/  6/ 12 1022.0F
MICHIGAN CITY    1040   36     150/  9/ 13   N/A

$$

INZ004-005-014>016-021>024-171200-
NORTH CENTRAL INDIANA

CITY           SKY/WX    TMP DP  RH WIND       PRES   REMARKS
GOSHEN         CLOUDY    36  28  73 S7        30.21S WCI  30
LOGANSPORT +   CLOUDY    34  32  93 SE8       30.22R WCI  27
PERU/GRISSOM   CLOUDY    36  33  89 S8        30.20S WCI  29
ROCHESTER +    CLOUDY    37  32  81 SE8       30.21S WCI  31
SOUTH BEND     CLOUDY    34  30  85 S13       30.20F WCI  25
WARSAW +       CLOUDY    34  30  86 SE5       30.21F WCI  30

$$

INZ006>009-017-018-025>027-171200-
NORTHEAST INDIANA

CITY           SKY/WX    TMP DP  RH WIND       PRES   REMARKS
AUBURN +       CLOUDY    36  30  80 SE3       30.23F
FORT WAYNE     CLOUDY    37  31  78 S6        30.24R WCI  32
HUNTINGTON +   CLOUDY    35  30  81 S7        30.22F WCI  29
KENDALLVILLE + CLOUDY    35  30  82 S6        30.22S WCI  30

$$

INZ028-029-035-036-043>045-051>053-171200-
WEST CENTRAL INDIANA

CITY           SKY/WX    TMP DP  RH WIND       PRES   REMARKS
CRAWFORDSVL +  CLOUDY    29  29 100 SE3       30.17R
GREENCASTLE +  CLOUDY    28  27  93 SE6       30.20F WCI  22
LAFAYETTE      PTCLDY    32  30  92 CALM      30.21R
TERRE HAUTE    CLOUDY    27  24  89 SE5       30.19F WCI  22

$$

INZ030>032-037>040-046>048-054>057-064-065-171200-
CENTRAL INDIANA

CITY           SKY/WX    TMP DP  RH WIND       PRES   REMARKS
CP ATTERBURY + CLOUDY    32  30  93 SE3       30.24R
FISHERS *+     CLOUDY    32  32 100 SE8       30.21  WCI  25
FRANKFORT +    CLOUDY    36  32  85 S6        30.22R WCI  31
GREENWOOD *+   CLOUDY    37  32  81 SE7       30.22S WCI  32
INDIANAPOLIS   MOCLDY    34  29  82 SE13      30.21S WCI  25
-EAGLE CREEK   CLOUDY    35  28  75 SE7       30.20F WCI  29
KOKOMO +       CLOUDY    35  31  85 SE9       30.21F WCI  28
MARION +       CLOUDY    34  30  85 SE10      30.21F FOG     WCI  26
MT COMFORT *+  CLOUDY    34  32  93 SE12      30.21F WCI  25
SHELBYVILLE    CLOUDY    36  28  73 SE7       30.21S WCI  30
ZIONSVILLE +   CLOUDY    33  30  89 SE10      30.20F WCI  24

$$

INZ033-034-041-042-049-050-058-059-171200-
EAST CENTRAL INDIANA

CITY           SKY/WX    TMP DP  RH WIND       PRES   REMARKS
MUNCIE         CLOUDY    37  30  75 S6        30.22F WCI  32
RICHMOND +     CLOUDY    34  32  93 SE9       30.23S WCI  26

$$

INZ060-061-067>069-081>083-085>088-171200-
SOUTHWEST INDIANA

CITY           SKY/WX    TMP DP  RH WIND       PRES   REMARKS
EVANSVILLE     CLOUDY    32  30  92 SE7       30.22R FOG     WCI  26
HUNTINGBURG +  CLOUDY    32  31  96 SE6       30.23R FOG     WCI  26
WASHINGTON +   CLOUDY    32  30  94 SE8       30.22R WCI  24

$$

INZ062-063-066-070>080-084-089>092-171200-
SOUTH CENTRAL AND SOUTHEAST INDIANA

CITY           SKY/WX    TMP DP  RH WIND       PRES   REMARKS
BEDFORD +      CLOUDY    32  30  93 E6        30.21R WCI  26
BLOOMINGTON    CLOUDY    32  28  85 SE9       30.20S WCI  24
MADISON *+     CLOUDY    34  30  86 SE6       30.24S WCI  29
NORTH VERNON + MOCLDY    32  28  86 SE6       30.23S WCI  26
SEYMOUR +      CLOUDY    34  30  86 SE6       30.23S WCI  29

$$





USA.gov is the U.S. government's official web portal to all federal, state and local government web resources and services.